GLD1154 SBPA-SBFL

Flight info

Callsign GLD1154
Flight time 0h 51m
Altitude 25000
Route ANLER UM540 DADMO
Aircraft B738/M-SDFGIRY/S

Departure

Time 2026-04-25 23:12
Airport Porto Alegre-Salgado Filho International Airport (SBPA)

Arrival

Time 2026-04-26 00:03
Airport Hercílio Luz International Airport (SBFL)
Time Latitude Longitude Altitude Speed Heading
2026-04-25 22:44 -29.99139 -51.17482 18 ft 0 kts
2026-04-25 23:06 -29.99145 -51.17483 20 ft 4 kts
2026-04-25 23:06 -29.99175 -51.17473 22 ft 4 kts 299°
2026-04-25 23:06 -29.99181 -51.17445 20 ft 4 kts 271°
2026-04-25 23:06 -29.99181 -51.17437 20 ft 1 kts 271°
2026-04-25 23:09 -29.99180 -51.17462 20 ft 10 kts 271°
2026-04-25 23:09 -29.99175 -51.17589 20 ft 18 kts 279°
2026-04-25 23:09 -29.99218 -51.17695 18 ft 16 kts 189°
2026-04-25 23:09 -29.99287 -51.17775 18 ft 16 kts 275°
2026-04-25 23:10 -29.99283 -51.17899 18 ft 15 kts 270°
2026-04-25 23:10 -29.99292 -51.18017 20 ft 14 kts 253°
2026-04-25 23:10 -29.99327 -51.18123 19 ft 14 kts 249°
2026-04-25 23:10 -29.99362 -51.18222 20 ft 13 kts 236°
2026-04-25 23:11 -29.99435 -51.18249 20 ft 11 kts 136°
2026-04-25 23:11 -29.99440 -51.18226 20 ft 0 kts 90°
2026-04-25 23:11 -29.99440 -51.18221 20 ft 9 kts 90°
2026-04-25 23:12 -29.99447 -51.17776 21 ft 100 kts 91°
2026-04-25 23:12 -29.99464 -51.16662 76 ft 170 kts 91°
2026-04-25 23:12 -29.99486 -51.15226 885 ft 180 kts 91°
2026-04-25 23:12 -29.99507 -51.13846 2040 ft 161 kts 92°
2026-04-25 23:13 -29.99536 -51.12658 3123 ft 138 kts 92°
2026-04-25 23:13 -29.99564 -51.11503 3602 ft 155 kts 92°
2026-04-25 23:13 -29.99589 -51.10191 4071 ft 168 kts 92°
2026-04-25 23:13 -29.99608 -51.08856 4719 ft 175 kts 92°
2026-04-25 23:14 -29.99638 -51.07333 5034 ft 206 kts 92°
2026-04-25 23:14 -29.99674 -51.05570 5278 ft 234 kts 91°
2026-04-25 23:14 -29.99712 -51.03595 5536 ft 258 kts 91°
2026-04-25 23:14 -29.99752 -51.01458 5943 ft 279 kts 91°
2026-04-25 23:15 -29.99791 -50.99158 6556 ft 292 kts 91°
2026-04-25 23:15 -29.99831 -50.96790 7358 ft 297 kts 91°
2026-04-25 23:15 -29.99844 -50.94381 8175 ft 303 kts 84°
2026-04-25 23:15 -29.99183 -50.92088 8936 ft 305 kts 53°
2026-04-25 23:16 -29.97675 -50.90398 9640 ft 302 kts 26°
2026-04-25 23:16 -29.95730 -50.89605 9993 ft 295 kts
2026-04-25 23:16 -29.93725 -50.89672 10039 ft 292 kts 352°
2026-04-25 23:16 -29.91723 -50.89191 10025 ft 304 kts 25°
2026-04-25 23:17 -29.89962 -50.87813 10035 ft 308 kts 32°
2026-04-25 23:17 -29.88219 -50.86354 10039 ft 309 kts 31°
2026-04-25 23:17 -29.86458 -50.84919 10029 ft 310 kts 30°
2026-04-25 23:17 -29.84678 -50.83514 10033 ft 310 kts 30°
2026-04-25 23:18 -29.82883 -50.82124 10026 ft 310 kts 29°
2026-04-25 23:18 -29.81089 -50.80745 10028 ft 310 kts 29°
2026-04-25 23:18 -29.79295 -50.79367 10055 ft 311 kts 29°
2026-04-25 23:18 -29.77439 -50.77939 10196 ft 332 kts 30°
2026-04-25 23:19 -29.75458 -50.76415 10519 ft 351 kts 30°
2026-04-25 23:19 -29.73405 -50.74831 11160 ft 359 kts 30°
2026-04-25 23:19 -29.71312 -50.73213 11887 ft 364 kts 30°
2026-04-25 23:19 -29.69199 -50.71578 12631 ft 368 kts 29°
2026-04-25 23:20 -29.67056 -50.69922 13340 ft 374 kts 29°
2026-04-25 23:20 -29.64879 -50.68242 13996 ft 380 kts 28°
2026-04-25 23:20 -29.62669 -50.66538 14640 ft 384 kts 28°
2026-04-25 23:20 -29.60443 -50.64821 15311 ft 386 kts 28°
2026-04-25 23:21 -29.58224 -50.63112 15910 ft 392 kts 28°
2026-04-25 23:21 -29.55942 -50.61356 16538 ft 398 kts 27°
2026-04-25 23:21 -29.53629 -50.59576 17182 ft 402 kts 27°
2026-04-25 23:21 -29.51295 -50.57780 17852 ft 405 kts 27°
2026-04-25 23:22 -29.48939 -50.55971 18465 ft 409 kts 27°
2026-04-25 23:22 -29.46604 -50.54052 18999 ft 417 kts 32°
2026-04-25 23:22 -29.44370 -50.51882 19576 ft 423 kts 35°
2026-04-25 23:23 -29.39958 -50.47333 20694 ft 430 kts 35°
2026-04-25 23:23 -29.37711 -50.45046 21253 ft 432 kts 35°
2026-04-25 23:23 -29.35446 -50.42775 21893 ft 432 kts 34°
2026-04-25 23:23 -29.33180 -50.40524 22611 ft 429 kts 34°
2026-04-25 23:24 -29.30949 -50.38319 23311 ft 428 kts 34°
2026-04-25 23:24 -29.28691 -50.36091 23891 ft 428 kts 33°
2026-04-25 23:24 -29.26390 -50.33937 24425 ft 426 kts 30°
2026-04-25 23:24 -29.24031 -50.31895 24900 ft 426 kts 28°
2026-04-25 23:25 -29.21639 -50.29889 24984 ft 426 kts 27°
2026-04-25 23:25 -29.19247 -50.27895 24982 ft 425 kts 27°
2026-04-25 23:25 -29.16861 -50.25897 24996 ft 426 kts 27°
2026-04-25 23:25 -29.14474 -50.23887 24997 ft 426 kts 27°
2026-04-25 23:26 -29.12086 -50.21865 25011 ft 427 kts 28°
2026-04-25 23:26 -29.09703 -50.19841 25010 ft 427 kts 28°
2026-04-25 23:26 -29.07313 -50.17807 24997 ft 428 kts 28°
2026-04-25 23:26 -29.04928 -50.15777 25000 ft 428 kts 28°
2026-04-25 23:27 -29.02541 -50.13745 25001 ft 428 kts 28°
2026-04-25 23:27 -29.00156 -50.11716 24997 ft 428 kts 28°
2026-04-25 23:27 -28.97766 -50.09685 25003 ft 427 kts 28°
2026-04-25 23:27 -28.95380 -50.07659 25006 ft 427 kts 28°
2026-04-25 23:28 -28.92995 -50.05635 24995 ft 427 kts 28°
2026-04-25 23:28 -28.90615 -50.03616 24994 ft 426 kts 28°
2026-04-25 23:28 -28.88235 -50.01599 24979 ft 426 kts 28°
2026-04-25 23:28 -28.86028 -49.99729 24998 ft 425 kts 27°
2026-04-25 23:29 -28.83653 -49.97718 25002 ft 425 kts 27°
2026-04-25 23:29 -28.81287 -49.95713 24973 ft 420 kts 27°
2026-04-25 23:29 -28.78983 -49.93757 24987 ft 407 kts 27°
2026-04-25 23:29 -28.76724 -49.91844 24994 ft 401 kts 27°
2026-04-25 23:30 -28.74512 -49.89975 24981 ft 390 kts 26°
2026-04-25 23:30 -28.72374 -49.88167 24996 ft 378 kts 26°
2026-04-25 23:30 -28.70286 -49.86404 24952 ft 366 kts 26°
2026-04-25 23:30 -28.68286 -49.84715 24985 ft 351 kts 25°
2026-04-25 23:31 -28.66349 -49.83076 24995 ft 341 kts 25°
2026-04-25 23:31 -28.64463 -49.81484 24968 ft 337 kts 25°
2026-04-25 23:31 -28.62553 -49.79888 25029 ft 347 kts 25°
2026-04-25 23:31 -28.60578 -49.78245 25016 ft 351 kts 25°
2026-04-25 23:32 -28.58641 -49.76616 24533 ft 355 kts 26°
2026-04-25 23:32 -28.56582 -49.74886 23574 ft 371 kts 27°
2026-04-25 23:32 -28.54493 -49.73129 22518 ft 383 kts 28°
2026-04-25 23:32 -28.52352 -49.71317 21897 ft 382 kts 28°
2026-04-25 23:33 -28.50237 -49.69527 21420 ft 376 kts 28°
2026-04-25 23:33 -28.48145 -49.67765 20912 ft 372 kts 28°
2026-04-25 23:33 -28.46120 -49.65923 20359 ft 375 kts 35°
2026-04-25 23:33 -28.44235 -49.63873 19791 ft 376 kts 38°
2026-04-25 23:34 -28.42396 -49.61745 19217 ft 376 kts 40°
2026-04-25 23:34 -28.40594 -49.59632 18810 ft 369 kts 40°
2026-04-25 23:34 -28.38802 -49.57550 18475 ft 367 kts 39°
2026-04-25 23:34 -28.37002 -49.55486 18108 ft 366 kts 39°
2026-04-25 23:35 -28.35214 -49.53454 17733 ft 362 kts 39°
2026-04-25 23:35 -28.33436 -49.51446 17425 ft 358 kts 39°
2026-04-25 23:35 -28.31673 -49.49463 17088 ft 356 kts 39°
2026-04-25 23:35 -28.29912 -49.47487 16792 ft 355 kts 39°
2026-04-25 23:36 -28.28154 -49.45518 16431 ft 354 kts 39°
2026-04-25 23:36 -28.26432 -49.43589 16123 ft 352 kts 40°
2026-04-25 23:36 -28.24690 -49.41639 15804 ft 350 kts 40°
2026-04-25 23:36 -28.22959 -49.39702 15485 ft 349 kts 40°
2026-04-25 23:37 -28.21231 -49.37769 15169 ft 347 kts 40°
2026-04-25 23:37 -28.19515 -49.35850 14844 ft 346 kts 40°
2026-04-25 23:37 -28.17800 -49.33932 14527 ft 344 kts 40°
2026-04-25 23:37 -28.16095 -49.32026 14203 ft 343 kts 40°
2026-04-25 23:38 -28.14401 -49.30135 13898 ft 341 kts 40°
2026-04-25 23:38 -28.12718 -49.28257 13542 ft 339 kts 40°
2026-04-25 23:38 -28.11058 -49.26404 13237 ft 337 kts 40°
2026-04-25 23:38 -28.09400 -49.24555 12982 ft 333 kts 40°
2026-04-25 23:39 -28.07751 -49.22718 12676 ft 331 kts 40°
2026-04-25 23:39 -28.06111 -49.20891 12345 ft 328 kts 40°
2026-04-25 23:39 -28.04489 -49.19086 12042 ft 325 kts 40°
2026-04-25 23:39 -28.02880 -49.17293 11736 ft 324 kts 40°
2026-04-25 23:40 -28.01279 -49.15512 11424 ft 322 kts 40°
2026-04-25 23:40 -27.99704 -49.13761 11114 ft 321 kts 40°
2026-04-25 23:40 -27.98113 -49.11993 10810 ft 320 kts 40°
2026-04-25 23:40 -27.96529 -49.10233 10465 ft 320 kts 41°
2026-04-25 23:41 -27.94944 -49.08472 10192 ft 316 kts 41°
2026-04-25 23:41 -27.93395 -49.06752 10057 ft 308 kts 40°
2026-04-25 23:41 -27.91872 -49.05063 9796 ft 307 kts 40°
2026-04-25 23:41 -27.90349 -49.03375 9485 ft 307 kts 40°
2026-04-25 23:42 -27.88820 -49.01681 9208 ft 305 kts 40°
2026-04-25 23:42 -27.87309 -49.00004 8912 ft 304 kts 40°
2026-04-25 23:42 -27.85893 -48.98434 8656 ft 301 kts 41°
2026-04-25 23:42 -27.84402 -48.96783 8381 ft 299 kts 41°
2026-04-25 23:43 -27.82915 -48.95138 8101 ft 298 kts 40°
2026-04-25 23:43 -27.81461 -48.93525 7893 ft 295 kts 40°
2026-04-25 23:43 -27.80000 -48.91911 7686 ft 292 kts 40°
2026-04-25 23:43 -27.78543 -48.90303 7494 ft 293 kts 40°
2026-04-25 23:44 -27.77084 -48.88691 7258 ft 293 kts 40°
2026-04-25 23:44 -27.75636 -48.87088 6999 ft 289 kts 40°
2026-04-25 23:44 -27.74215 -48.85515 6846 ft 285 kts 40°
2026-04-25 23:44 -27.72774 -48.83936 6648 ft 292 kts 40°
2026-04-25 23:45 -27.71323 -48.82334 6430 ft 291 kts 40°
2026-04-25 23:45 -27.69886 -48.80745 6218 ft 288 kts 40°
2026-04-25 23:45 -27.68459 -48.79171 6004 ft 285 kts 40°
2026-04-25 23:45 -27.67054 -48.77622 5809 ft 281 kts 40°
2026-04-25 23:46 -27.65553 -48.76208 5306 ft 282 kts 29°
2026-04-25 23:46 -27.63865 -48.75077 4790 ft 283 kts 26°
2026-04-25 23:46 -27.62147 -48.73967 4157 ft 286 kts 27°
2026-04-25 23:46 -27.60535 -48.72708 3573 ft 289 kts 46°
2026-04-25 23:47 -27.59610 -48.70718 2996 ft 290 kts 79°
2026-04-25 23:47 -27.59753 -48.68514 2636 ft 280 kts 108°
2026-04-25 23:47 -27.60506 -48.66524 2266 ft 272 kts 118°
2026-04-25 23:47 -27.61465 -48.64716 1917 ft 265 kts 122°
2026-04-25 23:48 -27.62420 -48.62969 1582 ft 259 kts 122°
2026-04-25 23:48 -27.63334 -48.61245 1237 ft 253 kts 122°
2026-04-25 23:48 -27.64227 -48.59563 926 ft 245 kts 121°
2026-04-25 23:48 -27.65082 -48.57954 615 ft 231 kts 121°
2026-04-25 23:49 -27.65867 -48.56474 374 ft 210 kts 120°
2026-04-25 23:49 -27.66534 -48.55125 458 ft 183 kts 117°
2026-04-25 23:49 -27.67159 -48.53918 438 ft 178 kts 122°
2026-04-25 23:49 -27.67835 -48.52693 489 ft 195 kts 122°
2026-04-25 23:50 -27.68601 -48.51300 726 ft 222 kts 122°
2026-04-25 23:50 -27.69425 -48.49792 1245 ft 230 kts 122°
2026-04-25 23:50 -27.70256 -48.48261 2076 ft 230 kts 122°
2026-04-25 23:50 -27.71087 -48.46726 2931 ft 235 kts 122°
2026-04-25 23:51 -27.71952 -48.45124 3592 ft 242 kts 122°
2026-04-25 23:51 -27.72832 -48.43494 3950 ft 246 kts 123°
2026-04-25 23:51 -27.73712 -48.41822 3987 ft 250 kts 117°
2026-04-25 23:51 -27.73992 -48.39827 4151 ft 274 kts 77°
2026-04-25 23:52 -27.73108 -48.37897 4785 ft 283 kts 45°
2026-04-25 23:52 -27.71519 -48.36622 4970 ft 280 kts 17°
2026-04-25 23:52 -27.69631 -48.36349 5005 ft 272 kts 347°
2026-04-25 23:52 -27.68453 -48.36773 4996 ft 267 kts 326°
2026-04-25 23:53 -27.67123 -48.38161 5014 ft 260 kts 305°
2026-04-25 23:53 -27.66034 -48.39795 5001 ft 261 kts 304°
2026-04-25 23:53 -27.64966 -48.41452 4999 ft 261 kts 303°
2026-04-25 23:53 -27.63899 -48.43113 4996 ft 261 kts 303°
2026-04-25 23:54 -27.62480 -48.45309 4994 ft 260 kts 303°
2026-04-25 23:54 -27.61759 -48.46420 5000 ft 260 kts 303°
2026-04-25 23:54 -27.60691 -48.48059 4991 ft 259 kts 303°
2026-04-25 23:54 -27.59624 -48.49692 4986 ft 258 kts 303°
2026-04-25 23:55 -27.58560 -48.51315 4995 ft 257 kts 303°
2026-04-25 23:55 -27.57497 -48.52936 4992 ft 257 kts 303°
2026-04-25 23:55 -27.56437 -48.54551 5001 ft 256 kts 303°
2026-04-25 23:55 -27.55377 -48.56164 5001 ft 256 kts 303°
2026-04-25 23:56 -27.54320 -48.57770 4998 ft 252 kts 303°
2026-04-25 23:56 -27.53310 -48.59301 4981 ft 234 kts 303°
2026-04-25 23:56 -27.52387 -48.60697 4993 ft 214 kts 303°
2026-04-25 23:56 -27.51521 -48.62008 5008 ft 198 kts 302°
2026-04-25 23:57 -27.50751 -48.63177 4983 ft 177 kts 300°
2026-04-25 23:57 -27.50385 -48.64368 4991 ft 152 kts 268°
2026-04-25 23:57 -27.50549 -48.65535 4935 ft 156 kts 248°
2026-04-25 23:57 -27.51211 -48.66556 4688 ft 169 kts 223°
2026-04-25 23:58 -27.52218 -48.67269 4419 ft 171 kts 214°
2026-04-25 23:58 -27.53256 -48.67982 4169 ft 179 kts 214°
2026-04-25 23:58 -27.54348 -48.68732 3865 ft 187 kts 213°
2026-04-25 23:58 -27.55447 -48.69481 3566 ft 187 kts 213°
2026-04-25 23:59 -27.56562 -48.70228 3277 ft 186 kts 207°
2026-04-25 23:59 -27.57800 -48.70386 2989 ft 178 kts 159°
2026-04-25 23:59 -27.58681 -48.69488 2892 ft 172 kts 125°
2026-04-25 23:59 -27.59380 -48.68451 2669 ft 159 kts 128°
2026-04-26 00:00 -27.59984 -48.67486 2451 ft 146 kts 123°
2026-04-26 00:00 -27.60520 -48.66524 2273 ft 146 kts 122°
2026-04-26 00:00 -27.61052 -48.65538 2078 ft 147 kts 121°
2026-04-26 00:00 -27.61577 -48.64551 1877 ft 145 kts 122°
2026-04-26 00:01 -27.62093 -48.63579 1696 ft 144 kts 123°
2026-04-26 00:01 -27.62598 -48.62628 1488 ft 143 kts 122°
2026-04-26 00:01 -27.63110 -48.61665 1318 ft 144 kts 122°
2026-04-26 00:01 -27.63625 -48.60696 1121 ft 144 kts 122°
2026-04-26 00:02 -27.64139 -48.59730 948 ft 144 kts 121°
2026-04-26 00:02 -27.64653 -48.58762 762 ft 143 kts 121°
2026-04-26 00:02 -27.65161 -48.57805 581 ft 142 kts 121°
2026-04-26 00:02 -27.65667 -48.56854 406 ft 141 kts 121°
2026-04-26 00:03 -27.66165 -48.55903 240 ft 140 kts 120°
2026-04-26 00:03 -27.66658 -48.54948 44 ft 141 kts 122°
2026-04-26 00:03 -27.67088 -48.54155 25 ft 92 kts 121°
2026-04-26 00:03 -27.67319 -48.53730 26 ft 48 kts 122°
2026-04-26 00:04 -27.67490 -48.53419 26 ft 45 kts 122°
2026-04-26 00:04 -27.67635 -48.53148 26 ft 36 kts 121°
2026-04-26 00:04 -27.67780 -48.53137 28 ft 16 kts 218°
2026-04-26 00:04 -27.67784 -48.53140 28 ft 0 kts 218°
2026-04-26 00:05 -27.67797 -48.53155 27 ft 7 kts 234°
2026-04-26 00:05 -27.67789 -48.53241 29 ft 17 kts 299°
2026-04-26 00:06 -27.67720 -48.53367 29 ft 19 kts 303°
2026-04-26 00:06 -27.67650 -48.53489 28 ft 18 kts 303°
2026-04-26 00:06 -27.67583 -48.53609 28 ft 18 kts 302°
2026-04-26 00:06 -27.67519 -48.53726 28 ft 17 kts 302°
2026-04-26 00:07 -27.67457 -48.53836 30 ft 17 kts 303°
2026-04-26 00:07 -27.67398 -48.53945 29 ft 16 kts 301°
2026-04-26 00:07 -27.67342 -48.54050 28 ft 15 kts 301°
2026-04-26 00:07 -27.67288 -48.54150 30 ft 15 kts 301°
2026-04-26 00:08 -27.67236 -48.54246 27 ft 14 kts 301°
2026-04-26 00:08 -27.67236 -48.54340 30 ft 13 kts 220°
2026-04-26 00:08 -27.67293 -48.54412 29 ft 13 kts 272°
2026-04-26 00:08 -27.67256 -48.54501 27 ft 9 kts 284°
2026-04-26 00:09 -27.67276 -48.54531 26 ft 0 kts 211°
2026-04-26 00:09 -27.67281 -48.54535 26 ft 3 kts 213°
2026-04-26 00:09 -27.67290 -48.54542 30 ft 0 kts 213°